TimeEST,TemperatureF,Dew PointF,Humidity,Sea Level PressureIn,VisibilityMPH,Wind Direction,Wind SpeedMPH,Gust SpeedMPH,PrecipitationIn,Events,Conditions,WindDirDegrees,DateUTC
12:15 AM,44.6,44.6,100,29.59,9.0,Calm,Calm,-,N/A,,Light Drizzle,0,2013-02-20 05:15:00
12:35 AM,44.6,42.8,93,29.58,10.0,SW,4.6,-,N/A,,Light Drizzle,220,2013-02-20 05:35:00
12:55 AM,44.6,42.8,93,29.57,10.0,WSW,3.5,-,N/A,,Light Drizzle,250,2013-02-20 05:55:00
1:15 AM,44.6,42.8,93,29.56,10.0,SW,3.5,-,N/A,,Light Drizzle,220,2013-02-20 06:15:00
1:35 AM,42.8,42.8,100,29.57,10.0,WSW,4.6,-,N/A,,Light Drizzle,240,2013-02-20 06:35:00
1:55 AM,42.8,41.0,93,29.55,10.0,SW,3.5,-,N/A,,Light Drizzle,230,2013-02-20 06:55:00
2:15 AM,42.8,41.0,93,29.56,10.0,SW,5.8,-,N/A,,Light Drizzle,230,2013-02-20 07:15:00
2:35 AM,41.0,39.2,93,29.56,10.0,SW,5.8,-,N/A,,Light Drizzle,230,2013-02-20 07:35:00
2:55 AM,41.0,39.2,93,29.56,10.0,WSW,6.9,-,N/A,,Light Drizzle,240,2013-02-20 07:55:00
3:15 AM,39.2,39.2,100,29.56,10.0,SW,5.8,-,N/A,,Light Drizzle,220,2013-02-20 08:15:00
3:35 AM,39.2,37.4,93,29.56,10.0,SW,5.8,-,N/A,,Light Drizzle,230,2013-02-20 08:35:00
3:55 AM,39.2,37.4,93,29.56,10.0,SW,4.6,-,N/A,,Light Drizzle,230,2013-02-20 08:55:00
4:15 AM,39.2,37.4,93,29.56,10.0,SW,4.6,-,N/A,,Light Drizzle,220,2013-02-20 09:15:00
4:35 AM,39.2,37.4,93,29.57,10.0,SW,6.9,-,N/A,,Light Drizzle,230,2013-02-20 09:35:00
4:55 AM,37.4,35.6,93,29.58,10.0,WSW,10.4,16.1,N/A,,Light Drizzle,250,2013-02-20 09:55:00
5:15 AM,37.4,32.0,81,29.58,10.0,West,9.2,-,N/A,,Mostly Cloudy,260,2013-02-20 10:15:00
5:35 AM,35.6,32.0,87,29.59,10.0,West,9.2,18.4,N/A,,Partly Cloudy,260,2013-02-20 10:35:00
5:55 AM,35.6,30.2,81,29.60,10.0,West,13.8,19.6,N/A,,Scattered Clouds,260,2013-02-20 10:55:00
6:15 AM,33.8,28.4,81,29.61,10.0,WSW,10.4,16.1,N/A,,Scattered Clouds,250,2013-02-20 11:15:00
6:55 AM,33.8,28.4,81,29.63,10.0,WSW,8.1,-,N/A,,Scattered Clouds,250,2013-02-20 11:55:00
7:15 AM,33.8,26.6,75,29.64,10.0,West,10.4,18.4,N/A,,Overcast,260,2013-02-20 12:15:00
7:35 AM,33.8,23.0,65,29.64,10.0,West,11.5,21.9,N/A,,Overcast,260,2013-02-20 12:35:00
7:55 AM,33.8,23.0,65,29.65,10.0,West,11.5,21.9,N/A,,Overcast,260,2013-02-20 12:55:00
8:15 AM,33.8,23.0,65,29.66,10.0,West,12.7,21.9,N/A,,Mostly Cloudy,260,2013-02-20 13:15:00
8:55 AM,35.6,21.2,56,29.67,10.0,WSW,11.5,23.0,N/A,,Partly Cloudy,240,2013-02-20 13:55:00
9:15 AM,35.6,21.2,56,29.67,10.0,WSW,12.7,21.9,N/A,,Clear,250,2013-02-20 14:15:00
9:35 AM,35.6,19.4,52,29.66,10.0,West,18.4,26.5,N/A,,Clear,260,2013-02-20 14:35:00
9:55 AM,35.6,19.4,52,29.66,10.0,WSW,16.1,25.3,N/A,,Clear,250,2013-02-20 14:55:00
10:15 AM,35.6,19.4,52,29.66,10.0,West,9.2,24.2,N/A,,Clear,270,2013-02-20 15:15:00
10:35 AM,37.4,19.4,48,29.67,10.0,WSW,12.7,18.4,N/A,,Clear,250,2013-02-20 15:35:00
10:55 AM,37.4,19.4,48,29.66,10.0,West,16.1,25.3,N/A,,Scattered Clouds,260,2013-02-20 15:55:00
11:15 AM,37.4,19.4,48,29.66,10.0,WSW,11.5,23.0,N/A,,Scattered Clouds,250,2013-02-20 16:15:00
11:55 AM,35.6,17.6,48,29.66,10.0,WSW,16.1,29.9,N/A,,Mostly Cloudy,240,2013-02-20 16:55:00
12:15 PM,37.4,17.6,45,29.65,10.0,WSW,16.1,27.6,N/A,,Mostly Cloudy,250,2013-02-20 17:15:00
12:35 PM,35.6,17.6,48,29.65,10.0,West,18.4,24.2,N/A,,Mostly Cloudy,260,2013-02-20 17:35:00
12:55 PM,35.6,17.6,48,29.65,10.0,West,11.5,27.6,N/A,,Mostly Cloudy,270,2013-02-20 17:55:00
1:15 PM,35.6,17.6,48,29.65,10.0,West,13.8,23.0,N/A,,Mostly Cloudy,280,2013-02-20 18:15:00
1:35 PM,33.8,15.8,48,29.64,10.0,West,15.0,20.7,N/A,,Scattered Clouds,260,2013-02-20 18:35:00
1:55 PM,35.6,14.0,41,29.64,10.0,West,15.0,24.2,N/A,,Partly Cloudy,270,2013-02-20 18:55:00
2:15 PM,35.6,14.0,41,29.64,10.0,West,12.7,21.9,N/A,,Mostly Cloudy,270,2013-02-20 19:15:00
2:35 PM,33.8,14.0,44,29.65,10.0,West,15.0,27.6,N/A,,Scattered Clouds,260,2013-02-20 19:35:00
2:55 PM,33.8,14.0,44,29.65,10.0,West,11.5,26.5,N/A,,Mostly Cloudy,270,2013-02-20 19:55:00
3:15 PM,33.8,12.2,41,29.65,10.0,West,13.8,24.2,N/A,,Overcast,280,2013-02-20 20:15:00
3:35 PM,33.8,12.2,41,29.66,10.0,West,10.4,25.3,N/A,,Overcast,260,2013-02-20 20:35:00
3:55 PM,33.8,12.2,41,29.66,10.0,West,15.0,20.7,N/A,,Overcast,270,2013-02-20 20:55:00
4:15 PM,33.8,10.4,38,29.67,10.0,West,8.1,26.5,N/A,,Mostly Cloudy,260,2013-02-20 21:15:00
4:35 PM,33.8,12.2,41,29.67,10.0,West,12.7,20.7,N/A,,Partly Cloudy,260,2013-02-20 21:35:00
4:55 PM,32.0,10.4,41,29.68,10.0,West,13.8,24.2,N/A,,Partly Cloudy,270,2013-02-20 21:55:00
5:15 PM,32.0,10.4,41,29.69,10.0,West,11.5,25.3,N/A,,Partly Cloudy,260,2013-02-20 22:15:00
5:35 PM,32.0,10.4,41,29.70,10.0,West,13.8,25.3,N/A,,Clear,260,2013-02-20 22:35:00
5:55 PM,32.0,10.4,41,29.70,10.0,West,11.5,19.6,N/A,,Clear,260,2013-02-20 22:55:00
6:15 PM,32.0,10.4,41,29.71,10.0,West,16.1,23.0,N/A,,Clear,260,2013-02-20 23:15:00
6:35 PM,32.0,12.2,44,29.72,10.0,West,9.2,23.0,N/A,,Clear,260,2013-02-20 23:35:00
6:55 PM,32.0,12.2,44,29.72,10.0,West,8.1,20.7,N/A,,Clear,260,2013-02-20 23:55:00
7:15 PM,30.2,12.2,47,29.73,10.0,West,9.2,23.0,N/A,,Clear,260,2013-02-21 00:15:00
7:35 PM,30.2,12.2,47,29.73,10.0,West,12.7,25.3,N/A,,Clear,270,2013-02-21 00:35:00
7:55 PM,30.2,12.2,47,29.74,10.0,West,11.5,24.2,N/A,,Clear,260,2013-02-21 00:55:00
8:15 PM,30.2,12.2,47,29.74,10.0,West,11.5,19.6,N/A,,Partly Cloudy,260,2013-02-21 01:15:00
8:35 PM,30.2,12.2,47,29.74,10.0,West,13.8,19.6,N/A,,Partly Cloudy,260,2013-02-21 01:35:00
8:55 PM,30.2,12.2,47,29.75,10.0,WSW,12.7,19.6,N/A,,Mostly Cloudy,250,2013-02-21 01:55:00
9:15 PM,30.2,12.2,47,29.75,10.0,WSW,12.7,24.2,N/A,,Partly Cloudy,250,2013-02-21 02:15:00
9:35 PM,30.2,12.2,47,29.76,10.0,West,9.2,20.7,N/A,,Scattered Clouds,260,2013-02-21 02:35:00
9:55 PM,30.2,14.0,51,29.76,10.0,West,12.7,20.7,N/A,,Scattered Clouds,260,2013-02-21 02:55:00
10:35 PM,30.2,14.0,51,29.78,10.0,WSW,8.1,17.3,N/A,,Clear,250,2013-02-21 03:35:00
10:55 PM,30.2,14.0,51,29.79,10.0,WSW,10.4,19.6,N/A,,Clear,250,2013-02-21 03:55:00
11:55 PM,30.2,14.0,51,29.79,10.0,West,9.2,18.4,N/A,,Clear,260,2013-02-21 04:55:00